Regional Weather Roundup
Issued by NWS Upton, NY

Current Version | Previous Version | Text Only | Print | Product List | Glossary On
Versions: 1 2 3 4 5 6 7 8 9 10 11 12 13 14 15 16 17 18 19 20 21 22 23 24 25 26 27
000
ASUS41 KOKX 211308
RWROKX

REGIONAL WEATHER ROUNDUP
NATIONAL WEATHER SERVICE NEW YORK NY
900 AM EDT MON AUG 21 2017

NOTE: "FAIR" INDICATES FEW OR NO CLOUDS BELOW 12,000 FEET WITH NO
SIGNIFICANT WEATHER AND/OR OBSTRUCTIONS TO VISIBILITY.

NYZ071-072-176-178-NJZ106-104-211400-
NEW YORK CITY METRO AREA

CITY           SKY/WX    TMP DP  RH WIND       PRES   REMARKS
Central Park   SUNNY     76  63  64 CALM      30.23S
Bronx Bot Gard   N/A    N/A N/A N/A W6        30.23R
LaGuardia APRT MOSUNNY   80  62  54 W8        30.19S
Kennedy INTL   PTSUNNY   79  67  66 SW7       30.21S
Breezy Point     N/A     72 N/A N/A W5          N/A
Newark/Liberty PTSUNNY   77  64  64 W6        30.20S
Teterboro      SUNNY     83  65  54 SE13G21   30.19F
$$

NYZ177-179-078>081-211400-
LONG ISLAND NEW YORK

CITY           SKY/WX    TMP DP  RH WIND       PRES   REMARKS
Jones Beach      N/A     73 N/A N/A W5          N/A
Matinecock PT    N/A     73 N/A N/A SW5         N/A
Farmingdale    SUNNY     77  65  66 W6        30.20F
MacArthur/ISP  PTSUNNY   78  65  63 W7        30.20S
Shirley        SUNNY     78  67  68 SW5       30.20F
Mt Sinai Harb    N/A    N/A N/A N/A SW3         N/A
Westhampton    SUNNY     77  63  61 SW6       30.21F
East Hampton   FAIR      75  66  73 CALM      30.19S
Montauk          N/A     77  66  68 CALM      30.20S
$$

NYZ052-065-067-211400-
HUDSON VALLEY

CITY           SKY/WX    TMP DP  RH WIND       PRES   REMARKS
White Plains   SUNNY     75  63  66 W7        30.20F
Larchmont Harb   N/A     73 N/A N/A SE3         N/A
Croton On Huds   N/A     73 N/A N/A CALM        N/A
Newburgh       MOSUNNY   72  66  83 W7        30.22S
Montgomery     MOSUNNY   70  65  84 S6        30.20F
Poughkeepsie   MOSUNNY   71  63  75 SW5       30.18F
Albany         MOSUNNY   68  61  78 S10       30.18S
$$

NJZ001-105-106-008-010-013-015-019>022-104-211400-
NEW JERSEY

CITY           SKY/WX    TMP DP  RH WIND       PRES   REMARKS
Newark/Liberty PTSUNNY   77  64  64 W6        30.20S
Teterboro      SUNNY     83  65  54 SE13G21   30.19F
Caldwell       SUNNY     72  64  76 CALM      30.21F
Somerville     SUNNY     71  66  84 CALM      30.20S
Linden         FAIR      75  62  64 W6        30.21S
Perth Amboy      N/A     72 N/A N/A W6          N/A
Sussex         SUNNY     68  65  90 SW3       30.21F
Andover          N/A     69  66  90 SE3       30.22F
Trenton        SUNNY     74  67  78 SW5       30.21F
Millville      SUNNY     78  72  81 CALM      30.22S
Atlantic City  SUNNY     78  67  68 CALM      30.22S
Wrightstown    SUNNY     76  66  71 W5        30.19S
Toms River     SUNNY     77  67  71 W5        30.22S
Belmar         MOSUNNY   75  66  73 W6        30.22F
$$

PAZ047>061-062-071-211400-
EASTERN PENNSYLVANIA

CITY           SKY/WX    TMP DP  RH WIND       PRES   REMARKS
Philadelphia   PTSUNNY   76  65  68 CALM      30.21F
Allentown      MOSUNNY   71  64  78 CALM      30.22F
Scranton       PTSUNNY   71  63  75 CALM      30.21F
$$

CTZ002-004>006-009-010-012-RIZ004-006-007-MAZ004-011-015-211400-
SOUTHERN NEW ENGLAND
 IN CT

CITY           SKY/WX    TMP DP  RH WIND       PRES   REMARKS
Bradley INTL   PTSUNNY   69  61  75 CALM      30.18F
Hartford       SUNNY     72  63  73 CALM      30.18F
Danbury        CLOUDY    73  65  75 SW6       30.21S
Wtrbury/Oxford MOSUNNY   70  63  78 CALM      30.22S
Norwalk Harbor   N/A     72 N/A N/A SW9         N/A
Bridgeport     SUNNY     74  63  68 SW7       30.19S
Meriden        MOSUNNY   69  63  81 CALM      30.19F
New Haven      CLOUDY    72  63  73 SW3       30.19S
Chester        FAIR      75  63  64 VRB5      30.20S
Groton         MOSUNNY   73  62  68 VRB3      30.18S
Wilimantic     SUNNY     68  62  81 CALM      30.19F

 IN RI

CITY           SKY/WX    TMP DP  RH WIND       PRES   REMARKS
Providence     PTSUNNY   76  63  64 CALM      30.18S
Block Island   SUNNY     75  68  78 W8        30.20S
Westerly       MOSUNNY   74  63  68 SW5       30.19S
 IN MA

CITY           SKY/WX    TMP DP  RH WIND       PRES   REMARKS
Boston         MOSUNNY   76  60  57 NW6       30.16F
Worcester      SUNNY     73  58  59 W10       30.20S
Westfield      MOSUNNY   69  61  75 VRB3      30.18F
Provincetown   SUNNY     71  63  75 W8        30.16F
Nantucket      SUNNY     74  66  76 W9        30.17F
$$

ANZ330-335-338-340-345-350-353-355-211400-
COASTAL MARINE OBSERVATIONS


STATION/POSITION TIME  SKY/WX   TEMP    WIND        PRES    VSBY  WAVE
                                AIR SEA DIR/SP/G                  HT/PER
                 (UTC)          (F)     (DEG/KT/KT) (MB)    (MI)  (FT/S)
NY HARB ENTRANCE 1150            75 76  270/  6/  6 1022.4          2/ 8
GREAT SOUTH BAY  1230            75 78  260/  6/ 10   N/A
23 SSW MONTAUK P 1150            73 72              1022.8          2/ 9
15 E BARNEGAT LI 1200               77                N/A           2/ 8
HUDSON CANYON    1150            75 74  280/  6/  6 1022.5          2/ 8
KINGS POINT      1230            75 74  180/  1/  2 1022.5
EXECUTION ROCKS  NOT AVBL
WESTERN LI SOUND NOT AVBL
CENTRAL LI SOUND NOT AVBL
EASTERN LI SOUND NOT AVBL
ROBBINS REEF     1224                   290/  3/  4 1023.4
$$


>>>>>>>>>>>>>>>>>>>>>>>>>>>> KEY <<<<<<<<<<<<<<<<<<<<<<<<<<<
>                                                          <
>     SKY/WX - Sky Condition/Present Weather               <
>     TMP    - Temperature in Fahrenheit                   <
>     DP     - Dew Point in Fahrenheit                     <
>     RH     - Relative Humidity in Percent                <
>     WIND   - Direction (from) and Speed in MPH           <
>     PRES   - Mean Sea Level Pressure (inches of Hg)      <
>     WCI    - Wind Chill Index                            <
>     VSB    - VISIBILITY IN MILES                         <
>     HX     - HEAT INDEX                                  <
>     TC     - TEMPERATURE IN CELSIUS                      <
>     VRB    - VARIABLE WIND DIRECTION                     <
>                                                          <
>>>>>>>>>>>>>>>>>>>>>>>>>>>> KEY <<<<<<<<<<<<<<<<<<<<<<<<<<<




USA.gov is the U.S. government's official web portal to all federal, state and local government web resources and services.